Powrót do katalogu

ONEWEB-0701

AktywnyŁącznośćPO
NORAD 61607·PAYLOAD·🇬🇧 United Kingdom

Wystrzelony Oct 20, 2024 z Vandenberg Space Force Base

Loading…

Następne Przeloty (najbliższe 24 godziny)

TLE

ŚwieżeSource: CelesTrak SupGP

Epoka: Sep 14, 2026, 19:47 UTC

1 61607C 24188P   26257.82446019  .00001999  00000+0  57327-2 0  2579
2 61607  87.8903  18.4214 0001228  80.3405  29.1562 13.10370801    10

Śledź ONEWEB-0701 w czasie rzeczywistym z AllMySat

Download on the App Store